Flag for U.S.A. Weather past 2 weeks in Kalamazoo, Michigan, U.S.A.

Now
71 °F

Overcast.


Feels Like: 76 °F
Forecast: 60 / 73 °F
Wind: 9 mph from Northwest

Location: Kalamazoo / Battle Creek International Airport

Current Time: Jul 7, 2015 at 6:45:52 PM

Latest Report: Jul 7, 2015 at 5:53 PM


Visibility: 10 mi

Pressure: 29.96 "Hg

Humidity: 61%

Dew point: 57 °F

Location of KalamazooLocation

Historic Weather in Kalamazoo — Graph

°F

Kalamazoo temperature yesterday

Maximum temperature yesterday: 84 °F (at 3:53 PM)
Minimum temperature yesterday: 63 °F (at 4:53 AM)
Average temperature yesterday: 75 °F

Past Weeks' High & Low Weather Summary

 TemperatureHumidityPressure
High84 °F (Jul 6, 3:53 PM)100% (Jun 24, 5:53 AM)30.18 "Hg (Jun 24, 5:53 AM)
Low52 °F (Jun 28, 4:53 AM)38% (Jun 24, 3:53 PM)29.71 "Hg (Jun 22, 11:53 PM)
Average68 °F71%29.95 "Hg
* Reported Jun 22 4:53 PM — Jul 7 4:53 PM, Kalamazoo, Weather by CustomWeather, © 2015

Note: Actual official high and low records may vary slightly from our data, if they occured in-between our weather recording intervals... More about our weather records

Advertising

Kalamazoo weather history for previous 24 hours

 ConditionsComfort  
Time TempWeatherWind HumidityBarometerVisibility
4:53 PM
Tue, Jul 7
71 °FOvercast.12 mph61%29.95 "Hg10 mi
3:53 PM73 °FOvercast.7 mph57%29.94 "Hg10 mi
2:53 PM72 °FPartly sunny.13 mph59%29.92 "Hg10 mi
1:53 PM70 °FScattered clouds.15 mph68%29.92 "Hg10 mi
12:53 PM66 °FBroken clouds.12 mph78%29.92 "Hg10 mi
11:53 AM62 °FFog.12 mph90%29.91 "Hg4 mi
10:53 AM65 °FRain. Fog.10 mph91%29.89 "Hg2 mi
9:53 AM69 °FLight rain. Fog.9 mph90%29.86 "Hg4 mi
8:53 AM72 °FHeavy rain. Fog.8 mph91%29.84 "Hg1 mi
7:53 AM72 °FLight rain. Mostly cloudy.9 mph91%29.84 "Hg10 mi
6:53 AM72 °FLight rain. Mostly cloudy.7 mph91%29.83 "Hg7 mi
5:53 AM72 °FLight rain. Overcast.3 mph91%29.83 "Hg8 mi
4:53 AM71 °FPartly cloudy.7 mph90%29.83 "Hg10 mi
4:04 AM74 °FHeavy rain. Fog.8 mph88%29.86 "Hg1 mi
3:53 AM77 °FRain. Passing clouds.12 mph79%29.83 "Hg5 mi
2:53 AM77 °FPassing clouds.10 mph79%29.83 "Hg10 mi
1:53 AM76 °FClear.9 mph80%29.85 "Hg10 mi
12:53 AM77 °FClear.9 mph74%29.85 "Hg9 mi
11:53 PM
Mon, Jul 6
77 °FClear.12 mph69%29.86 "Hg9 mi
10:53 PM79 °FClear.13 mph62%29.87 "Hg9 mi
9:53 PM78 °FSunny.8 mph66%29.87 "Hg9 mi
8:53 PM79 °FSunny.8 mph65%29.87 "Hg8 mi
7:53 PM81 °FSunny.12 mph60%29.89 "Hg8 mi
6:53 PM82 °FSunny.12 mph58%29.90 "Hg8 mi
Weather by CustomWeather, © 2015

See weather overviewHow to use our weather pages